Location: Unspecified
(55.7024°N, 37.6611°E)
Time: 22:37:44
(UTC+03:00)

Vanguard 2 - All Passes

Search period start: 17 June 2025 00:00
Search period end: 27 June 2025 00:00
Orbit: 552 x 2900 km, 32.9° (Epoch: 17 June)

Date Brightness Start Highest point End Pass type
(mag) Time Alt. Az. Time Alt. Az. Time Alt. Az.
18 Jun - 12:43:52 10° S 12:45:27 11° S 12:46:55 10° S daylight
19 Jun - 12:54:33 10° SSW 12:57:26 12° S 12:59:58 10° SSE daylight
20 Jun - 10:58:26 10° S 11:02:18 12° S 11:05:39 10° SSE daylight
20 Jun - 13:05:54 10° SSW 13:09:24 13° S 13:12:23 10° SSE daylight
21 Jun - 11:08:47 10° SSW 11:14:17 15° S 11:18:46 10° SE daylight
21 Jun - 13:17:35 10° SW 13:21:19 13° SSW 13:24:29 10° S daylight
22 Jun - 09:15:03 10° S 09:18:37 11° SSE 09:21:50 10° SE daylight
22 Jun - 11:19:43 10° SSW 11:26:15 16° S 11:31:24 10° SE daylight
22 Jun - 13:29:32 10° SW 13:33:12 13° SSW 13:36:20 10° S daylight
23 Jun - 09:24:13 10° S 09:30:32 14° SSE 09:35:51 10° SE daylight
23 Jun - 11:30:58 10° SW 11:38:12 18° S 11:43:47 10° SE daylight
23 Jun - 13:41:46 10° SW 13:45:02 12° SSW 13:47:52 10° S daylight
24 Jun - 09:34:27 10° SSW 09:42:26 17° SSE 09:48:54 10° SE daylight
24 Jun - 11:42:27 10° SW 11:50:06 19° S 11:55:57 10° SSE daylight
24 Jun - 13:54:27 10° SW 13:56:49 11° SSW 13:58:56 10° SSW daylight
25 Jun - 07:42:13 10° SSE 07:46:22 11° SSE 07:50:12 10° SE daylight
25 Jun - 09:45:11 10° SSW 09:54:21 20° S 10:01:33 10° SE daylight
25 Jun - 11:54:06 10° SW 12:01:59 19° SSW 12:07:59 10° SSE daylight
26 Jun - 07:50:48 10° S 07:58:09 15° SSE 08:04:35 10° SE daylight
26 Jun - 09:56:14 10° SW 10:06:14 22° S 10:13:57 10° SE daylight
26 Jun - 12:05:56 10° SW 12:13:49 19° SSW 12:19:51 10° SSE daylight
